Météo par heure à Kyubyainde

Ce jour, 4 Août, Mercredi

Heure Température Précipitation Vent Pression Humidité
00:00 +18°C° 0 mm 2 m/s 744 mmHg 41%
01:00 +17°C° 0 mm 2 m/s 744 mmHg 41%
02:00 +17°C° 0 mm 2 m/s 744 mmHg 42%
03:00 +17°C° 0 mm 2 m/s 744 mmHg 44%
04:00 +17°C° 0 mm 2 m/s 744 mmHg 45%
05:00 +17°C° 0 mm 2 m/s 744 mmHg 46%
06:00 +20°C° 0 mm 2 m/s 744 mmHg 42%
07:00 +23°C° 0 mm 2 m/s 744 mmHg 38%
08:00 +26°C° 0 mm 2 m/s 744 mmHg 34%
09:00 +27°C° 0 mm 2 m/s 744 mmHg 31%
10:00 +29°C° 0 mm 2 m/s 744 mmHg 28%
11:00 +30°C° 0 mm 3 m/s 744 mmHg 25%
12:00 +31°C° 0 mm 3 m/s 743 mmHg 23%
13:00 +33°C° 0 mm 3 m/s 743 mmHg 22%
14:00 +33°C° 0 mm 3 m/s 743 mmHg 20%
15:00 +33°C° 0 mm 3 m/s 743 mmHg 20%
16:00 +33°C° 0 mm 3 m/s 743 mmHg 21%
17:00 +31°C° 0 mm 3 m/s 742 mmHg 22%
18:00 +29°C° 0 mm 3 m/s 742 mmHg 29%
19:00 +27°C° 0 mm 2 m/s 742 mmHg 36%
20:00 +24°C° 0 mm 1 m/s 742 mmHg 43%
21:00 +22°C° 0 mm 1 m/s 743 mmHg 44%
22:00 +21°C° 0 mm 1 m/s 743 mmHg 45%
23:00 +20°C° 0 mm 1 m/s 743 mmHg 46%

Demain, 5 Août, Jeudi

Heure Température Précipitation Vent Pression Humidité
00:00 +18°C° 0 mm 2 m/s 743 mmHg 46%
01:00 +17°C° 0 mm 2 m/s 743 mmHg 45%
02:00 +16°C° 0 mm 2 m/s 743 mmHg 45%
03:00 +16°C° 0 mm 2 m/s 743 mmHg 49%
04:00 +17°C° 0 mm 2 m/s 743 mmHg 52%
05:00 +17°C° 0 mm 2 m/s 743 mmHg 56%
06:00 +19°C° 0 mm 3 m/s 743 mmHg 49%
07:00 +21°C° 0 mm 3 m/s 743 mmHg 42%
08:00 +24°C° 0 mm 3 m/s 743 mmHg 35%
09:00 +26°C° 0 mm 3 m/s 743 mmHg 29%
10:00 +28°C° 0 mm 4 m/s 742 mmHg 24%
11:00 +29°C° 0 mm 4 m/s 742 mmHg 19%
12:00 +30°C° 0 mm 4 m/s 742 mmHg 18%
13:00 +30°C° 0 mm 5 m/s 742 mmHg 17%
14:00 +32°C° 0 mm 5 m/s 742 mmHg 17%
15:00 +30°C° 0 mm 5 m/s 742 mmHg 17%
16:00 +30°C° 0 mm 5 m/s 742 mmHg 18%
17:00 +29°C° 0 mm 5 m/s 742 mmHg 18%
18:00 +27°C° 0 mm 5 m/s 742 mmHg 22%
19:00 +25°C° 0 mm 5 m/s 742 mmHg 26%
20:00 +22°C° 0 mm 4 m/s 742 mmHg 29%
21:00 +21°C° 0 mm 4 m/s 742 mmHg 32%
22:00 +19°C° 0 mm 4 m/s 742 mmHg 34%
23:00 +17°C° 0 mm 3 m/s 743 mmHg 37%

Après-demain, 6 Août, Vendredi

Heure Température Précipitation Vent Pression Humidité
00:00 +16°C° 0 mm 3 m/s 743 mmHg 40%
01:00 +14°C° 0 mm 3 m/s 743 mmHg 43%
02:00 +13°C° 0 mm 2 m/s 743 mmHg 46%
03:00 +13°C° 0 mm 2 m/s 743 mmHg 48%
04:00 +13°C° 0 mm 2 m/s 743 mmHg 49%
05:00 +13°C° 0 mm 2 m/s 743 mmHg 51%
06:00 +15°C° 0 mm 2 m/s 743 mmHg 45%
07:00 +18°C° 0 mm 2 m/s 743 mmHg 38%
08:00 +20°C° 0 mm 3 m/s 743 mmHg 32%
09:00 +21°C° 0 mm 3 m/s 742 mmHg 29%
10:00 +24°C° 0 mm 3 m/s 742 mmHg 26%
11:00 +25°C° 0 mm 4 m/s 742 mmHg 24%
12:00 +25°C° 0 mm 4 m/s 742 mmHg 23%
13:00 +26°C° 0 mm 4 m/s 742 mmHg 22%
14:00 +26°C° 0 mm 4 m/s 742 mmHg 22%
15:00 +26°C° 0 mm 4 m/s 742 mmHg 22%
16:00 +25°C° 0 mm 3 m/s 742 mmHg 23%
17:00 +25°C° 0 mm 3 m/s 742 mmHg 24%
18:00 +22°C° 0 mm 3 m/s 742 mmHg 30%
19:00 +20°C° 0 mm 3 m/s 742 mmHg 37%
20:00 +18°C° 0 mm 3 m/s 742 mmHg 43%
21:00 +17°C° 0 mm 2 m/s 742 mmHg 44%
22:00 +17°C° 0 mm 2 m/s 742 mmHg 45%
23:00 +16°C° 0 mm 2 m/s 742 mmHg 46%

7 Août, Samedi

Heure Température Précipitation Vent Pression Humidité
00:00 +15°C° 0 mm 2 m/s 742 mmHg 47%
01:00 +14°C° 0 mm 2 m/s 742 mmHg 49%
02:00 +14°C° 0 mm 2 m/s 743 mmHg 50%
03:00 +14°C° 0 mm 2 m/s 743 mmHg 53%
04:00 +14°C° 0 mm 2 m/s 743 mmHg 55%
05:00 +14°C° 0 mm 2 m/s 743 mmHg 58%
06:00 +16°C° 0 mm 2 m/s 744 mmHg 52%
07:00 +18°C° 0 mm 2 m/s 744 mmHg 47%
08:00 +20°C° 0 mm 2 m/s 744 mmHg 42%
09:00 +23°C° 0 mm 2 m/s 744 mmHg 39%
10:00 +24°C° 0 mm 2 m/s 745 mmHg 36%
11:00 +26°C° 0 mm 2 m/s 745 mmHg 33%
12:00 +27°C° 0 mm 3 m/s 745 mmHg 32%
13:00 +27°C° 0 mm 3 m/s 745 mmHg 30%
14:00 +28°C° 0 mm 4 m/s 745 mmHg 29%
15:00 +27°C° 0 mm 4 m/s 745 mmHg 32%
16:00 +26°C° 0 mm 5 m/s 745 mmHg 36%
17:00 +26°C° 0 mm 5 m/s 745 mmHg 39%
18:00 +23°C° 0 mm 5 m/s 745 mmHg 43%
19:00 +21°C° 0 mm 4 m/s 746 mmHg 47%
20:00 +19°C° 0 mm 3 m/s 746 mmHg 51%
21:00 +18°C° 0 mm 3 m/s 746 mmHg 54%
22:00 +17°C° 0 mm 2 m/s 746 mmHg 57%
23:00 +16°C° 0 mm 2 m/s 746 mmHg 60%

8 Août, Dimanche

Heure Température Précipitation Vent Pression Humidité
00:00 +16°C° 0 mm 2 m/s 746 mmHg 58%
01:00 +17°C° 0 mm 2 m/s 746 mmHg 56%
02:00 +18°C° 0 mm 2 m/s 746 mmHg 55%
03:00 +17°C° 0.2 mm 3 m/s 746 mmHg 65%
04:00 +16°C° 0.2 mm 3 m/s 746 mmHg 74%
05:00 +16°C° 0.2 mm 3 m/s 746 mmHg 84%
06:00 +14°C° 0.3 mm 3 m/s 746 mmHg 85%
07:00 +14°C° 0.3 mm 3 m/s 746 mmHg 86%
08:00 +14°C° 0.3 mm 3 m/s 746 mmHg 86%
09:00 +14°C° 0 mm 3 m/s 746 mmHg 83%
10:00 +16°C° 0 mm 3 m/s 746 mmHg 80%
11:00 +16°C° 0 mm 3 m/s 746 mmHg 77%
12:00 +16°C° 0.5 mm 3 m/s 746 mmHg 83%
13:00 +15°C° 0.5 mm 2 m/s 746 mmHg 88%
14:00 +14°C° 0.5 mm 2 m/s 746 mmHg 93%
15:00 +14°C° 0.4 mm 2 m/s 746 mmHg 93%
16:00 +14°C° 0.4 mm 2 m/s 746 mmHg 93%
17:00 +13°C° 0.4 mm 3 m/s 745 mmHg 93%
18:00 +13°C° 0.9 mm 3 m/s 745 mmHg 93%
19:00 +13°C° 0.9 mm 3 m/s 745 mmHg 94%
20:00 +13°C° 0.9 mm 3 m/s 745 mmHg 94%
21:00 +13°C° 0.9 mm 3 m/s 745 mmHg 95%
22:00 +14°C° 0.9 mm 2 m/s 745 mmHg 96%
23:00 +14°C° 0.9 mm 2 m/s 744 mmHg 97%

9 Août, Lundi

Heure Température Précipitation Vent Pression Humidité
00:00 +14°C° 0.4 mm 2 m/s 744 mmHg 97%
01:00 +14°C° 0.4 mm 2 m/s 744 mmHg 98%
02:00 +14°C° 0.4 mm 1 m/s 744 mmHg 98%
03:00 +14°C° 0.2 mm 2 m/s 744 mmHg 98%
04:00 +14°C° 0.2 mm 2 m/s 744 mmHg 98%
05:00 +14°C° 0.2 mm 2 m/s 744 mmHg 97%
06:00 +14°C° 0 mm 2 m/s 744 mmHg 96%
07:00 +14°C° 0 mm 2 m/s 744 mmHg 95%
08:00 +13°C° 0 mm 3 m/s 744 mmHg 94%
09:00 +14°C° 0 mm 3 m/s 745 mmHg 90%
10:00 +16°C° 0 mm 3 m/s 745 mmHg 86%
11:00 +16°C° 0 mm 3 m/s 745 mmHg 82%
12:00 +17°C° 0 mm 3 m/s 745 mmHg 77%
13:00 +18°C° 0 mm 3 m/s 745 mmHg 71%
14:00 +19°C° 0 mm 3 m/s 745 mmHg 66%
15:00 +19°C° 0 mm 3 m/s 746 mmHg 61%
16:00 +20°C° 0 mm 3 m/s 746 mmHg 57%
17:00 +21°C° 0 mm 3 m/s 746 mmHg 52%
18:00 +19°C° 0 mm 2 m/s 746 mmHg 59%
19:00 +18°C° 0 mm 2 m/s 746 mmHg 66%
20:00 +16°C° 0 mm 2 m/s 746 mmHg 74%
21:00 +15°C° 0 mm 1 m/s 746 mmHg 79%
22:00 +14°C° 0 mm 1 m/s 746 mmHg 83%
23:00 +13°C° 0 mm 1 m/s 746 mmHg 88%
Voir plus

Nous avons besoin de votre consentement

Meteoprog et ses fournisseurs de services peuvent stocker et accéder à des données personnelles telles que des cookies, des identifiants d'appareils ou d'autres technologies similaires sur votre appareil et traiter ces données pour personnaliser le contenu et les publicités, ainsi que pour fournir des fonctionnalités de médias sociaux et analyser le trafic.

  • Stocker et/ou accéder à des informations sur votre appareil

    Des cookies, des identifiants d'appareils ou d'autres informations peuvent être stockés ou accessibles sur votre appareil aux fins indiquées ci-dessus.

  • Annonces et contenus personnalisés, mesure des annonces et des contenus, connaissance de l'audience et développement de produits

    Les annonces et le contenu peuvent être personnalisés en fonction d'un profil. D'autres données peuvent être ajoutées pour mieux personnaliser les annonces et le contenu. Les performances des publicités et du contenu peuvent être mesurées. Il est possible d'obtenir des informations sur le public qui a vu les publicités et le contenu. Ces données peuvent être utilisées pour développer ou améliorer l'expérience de l'utilisateur, les systèmes et les logiciels.

En cliquant sur "J'accepte", vous autorisez l'utilisation de cookies, des identifiants d'appareils, des balises web ou d'autres technologies similaires. Vos paramètres peuvent être modifiés dans le navigateur de votre appareil.

Dans certains cas, des intérêts légitimes peuvent être invoqués plutôt qu'un consentement. Vous pouvez en savoir plus à ce sujet dans notre Politique de confidentialité et de cookies.